Terug naar catalogus

STRIX-7

ActiefWetenschapVLEO
NORAD 69177·PAYLOAD·🇯🇵 Japan

Gelanceerd May 22, 2026 vanaf Rocket Lab Launch Complex 1

Loading…

Volgende Passages (komende 24 uur)

TLE

VersSource: Space-Track

Epoch: Sep 14, 2026, 13:52 UTC

1 69177U 26112A   26257.57825797  .00002652  00000-0  21583-3 0  9991
2 69177  44.9067  82.7543 0024837 191.0289 169.0041 15.01958027 17316

Volg STRIX-7 in realtime met AllMySat

Download on the App Store